"datetime","# probes","# resolvers","can_ipv6","can_ipv6_prbs","can_tcp","can_tcp_prbs","can_tcp6","can_tcp6_prbs","does_ecs","does_ecs_prbs","does_flagday","does_flagday_prbs","does_rov4","does_rov4_prbs","does_rov6","does_rov6_prbs","does_qnamemin","doesnt_qnamemin","does_qnamemin_prbs","doesnt_qnamemin_prbs","does_nxdomain","doesnt_nxdomain","does_nxdomain_prbs","doesnt_nxdomain_prbs","has_ta_19036","hasnt_ta_19036","has_ta_19036_prbs","hasnt_ta_19036_prbs","has_ta_20326","hasnt_ta_20326","has_ta_20326_prbs","hasnt_ta_20326_prbs","can_rsamd5","cannot_rsamd5","broken_rsamd5","can_rsamd5_prbs","cannot_rsamd5_prbs","broken_rsamd5_prbs","can_dsa","cannot_dsa","broken_dsa","can_dsa_prbs","cannot_dsa_prbs","broken_dsa_prbs","can_rsasha1","cannot_rsasha1","broken_rsasha1","can_rsasha1_prbs","cannot_rsasha1_prbs","broken_rsasha1_prbs","can_dsansec3","cannot_dsansec3","broken_dsansec3","can_dsansec3_prbs","cannot_dsansec3_prbs","broken_dsansec3_prbs","can_rsansec3","cannot_rsansec3","broken_rsansec3","can_rsansec3_prbs","cannot_rsansec3_prbs","broken_rsansec3_prbs","can_rsasha256","cannot_rsasha256","broken_rsasha256","can_rsasha256_prbs","cannot_rsasha256_prbs","broken_rsasha256_prbs","can_rsasha512","cannot_rsasha512","broken_rsasha512","can_rsasha512_prbs","cannot_rsasha512_prbs","broken_rsasha512_prbs","can_eccgost","cannot_eccgost","broken_eccgost","can_eccgost_prbs","cannot_eccgost_prbs","broken_eccgost_prbs","can_ecdsa256","cannot_ecdsa256","broken_ecdsa256","can_ecdsa256_prbs","cannot_ecdsa256_prbs","broken_ecdsa256_prbs","can_ecdsa384","cannot_ecdsa384","broken_ecdsa384","can_ecdsa384_prbs","cannot_ecdsa384_prbs","broken_ecdsa384_prbs","can_ed25519","cannot_ed25519","broken_ed25519","can_ed25519_prbs","cannot_ed25519_prbs","broken_ed25519_prbs","can_ed448","cannot_ed448","broken_ed448","can_ed448_prbs","cannot_ed448_prbs","broken_ed448_prbs","can_gost","cannot_gost","broken_gost","can_gost_prbs","cannot_gost_prbs","broken_gost_prbs","can_sha384","cannot_sha384","broken_sha384","can_sha384_prbs","cannot_sha384_prbs","broken_sha384_prbs","is_internal","is_forwarding","is_external","is_internal_prbs","is_forwarding_prbs","is_external_prbs"
2017-06-20T23:59:58Z,92,136,121,84,136,92,118,82,45,31,0,0,0,0,0,0,0,136,0,92,2,134,2,90,0,0,0,0,0,0,0,0,2,95,37,2,68,26,8,127,0,6,85,2,44,90,0,29,63,2,7,127,0,5,85,2,46,89,0,31,63,2,45,89,0,30,63,2,46,89,0,31,63,2,0,135,0,0,91,2,45,90,0,31,63,2,43,92,0,29,65,2,0,136,0,0,92,2,0,135,0,0,91,2,37,98,0,24,69,2,42,91,0,28,64,2,64,48,21,47,34,14
2017-06-21T23:59:58Z,94,141,126,86,141,94,123,83,47,32,0,0,0,0,0,0,0,141,0,94,4,137,3,91,0,0,0,0,0,0,0,0,2,101,38,2,72,26,9,131,0,6,87,2,47,94,0,31,67,2,9,131,0,6,87,2,48,92,0,31,66,2,48,92,0,31,66,2,48,92,0,31,66,2,0,140,0,0,93,2,45,95,0,30,67,2,45,96,0,30,68,2,0,141,0,0,94,2,0,141,0,0,94,2,37,103,0,24,72,2,44,96,0,29,68,2,64,53,22,47,36,14
2017-06-22T23:59:59Z,93,139,124,85,139,93,121,83,45,31,0,0,0,0,0,0,0,139,0,93,4,135,3,90,0,0,0,0,0,0,0,0,2,102,35,2,72,25,8,131,0,6,87,2,43,96,0,29,67,2,8,130,0,6,86,2,44,94,0,30,66,2,44,94,0,30,66,2,44,94,0,30,66,2,0,138,0,0,92,2,43,95,0,30,67,2,43,96,0,30,68,2,0,139,0,0,93,2,0,139,0,0,93,2,35,103,0,23,72,2,41,97,0,28,68,2,65,52,20,47,35,13
2017-06-23T23:59:59Z,92,136,121,84,136,92,119,82,44,30,0,0,0,0,0,0,0,136,0,92,4,132,3,89,0,0,0,0,0,0,0,0,2,99,35,2,71,25,8,128,0,6,86,2,43,93,0,29,66,2,8,127,0,6,85,2,46,89,0,30,64,2,46,89,0,30,64,2,46,89,0,30,64,2,0,135,0,0,91,2,43,92,0,30,66,2,43,93,0,30,67,2,0,136,0,0,92,2,0,136,0,0,92,2,35,100,0,23,71,2,42,93,0,28,66,2,62,51,20,46,35,13
2017-06-24T23:59:56Z,93,137,122,85,137,93,121,84,45,32,0,0,0,0,0,0,0,137,0,93,4,133,3,90,0,0,0,0,0,0,0,0,2,99,36,2,72,25,10,127,0,7,86,2,46,91,0,31,66,2,10,126,0,7,85,2,45,91,0,30,65,2,45,91,0,30,65,2,45,91,0,30,65,2,1,135,0,1,91,2,45,91,0,31,65,2,45,92,0,31,66,2,0,137,0,0,93,3,0,137,0,0,93,3,38,98,0,25,71,2,43,93,0,29,67,2,61,53,21,45,37,13
2017-06-25T23:59:58Z,92,135,120,84,135,92,117,83,44,31,0,0,0,0,0,0,0,135,0,92,4,131,3,89,0,0,0,0,0,0,0,0,2,97,36,2,71,25,8,127,0,6,86,2,44,91,0,30,66,2,8,126,0,6,85,2,44,90,0,30,65,2,44,90,0,30,65,2,44,90,0,30,65,2,0,134,0,0,91,2,42,92,0,29,65,2,42,93,0,29,66,2,0,135,0,0,92,3,0,135,0,0,92,2,35,99,0,23,71,2,41,93,0,28,66,2,63,48,20,46,34,13
2017-06-26T23:59:59Z,93,139,124,85,139,93,122,83,48,33,0,0,0,0,0,0,0,139,0,93,3,136,2,91,0,0,0,0,0,0,0,0,2,100,37,2,71,26,8,131,0,6,87,2,45,94,0,30,66,2,8,130,0,6,86,2,46,92,0,31,65,2,46,92,0,31,65,2,46,92,0,31,65,2,0,138,0,0,92,2,44,94,0,30,66,2,44,95,0,30,67,2,0,139,0,0,93,2,0,139,0,0,93,2,37,101,0,24,71,2,43,95,0,29,67,2,64,52,20,46,36,13
2017-06-27T23:59:59Z,92,139,124,84,139,92,123,83,46,31,0,0,0,0,0,0,0,139,0,92,4,135,3,89,0,0,0,0,0,0,0,0,2,100,37,2,70,26,9,130,0,6,86,2,46,93,0,30,65,2,10,128,0,7,85,2,47,91,0,30,63,2,48,90,0,31,63,2,48,90,0,31,63,2,0,137,1,0,91,3,45,93,0,30,65,2,45,94,0,30,66,2,0,139,0,0,92,2,0,139,0,0,92,2,37,101,0,24,70,2,44,94,0,29,66,2,65,50,21,47,34,13
2017-06-28T23:59:58Z,93,139,124,85,139,93,122,84,47,32,0,0,0,0,0,0,0,139,0,93,4,135,3,90,0,0,0,0,0,0,0,0,2,99,38,2,70,27,8,131,0,6,87,2,46,93,0,31,65,2,8,130,0,6,86,2,48,90,0,32,64,2,48,90,0,32,64,2,48,90,0,32,64,2,0,138,0,0,92,2,45,93,0,31,65,2,45,94,0,31,66,2,0,139,0,0,93,2,0,139,0,0,93,2,38,100,0,25,70,2,45,93,0,30,65,2,65,51,20,47,35,13
2017-06-29T23:59:52Z,95,142,127,87,142,95,125,86,48,33,0,0,0,0,0,0,0,142,0,95,4,138,3,92,0,0,0,0,0,0,0,0,2,102,38,2,72,27,10,132,0,7,88,2,48,94,0,32,66,2,10,131,0,7,87,2,49,92,0,33,65,2,49,92,0,33,65,2,49,92,0,33,65,2,2,139,0,1,93,2,47,94,0,32,66,2,47,95,0,32,67,2,0,142,0,0,95,2,0,142,0,0,95,2,41,100,0,27,71,2,48,93,0,32,67,2,64,54,20,46,37,13
2017-06-30T23:59:59Z,94,141,128,87,141,94,126,86,48,33,0,0,0,0,0,0,0,141,0,94,1,140,1,93,0,0,0,0,0,0,0,0,2,101,38,2,71,27,11,130,0,7,87,2,49,92,0,32,65,2,11,129,0,7,86,2,50,90,0,33,64,2,50,90,0,33,64,2,50,90,0,33,64,2,2,138,0,1,92,2,48,92,0,32,65,2,48,93,0,32,66,2,0,141,0,0,94,2,0,141,0,0,94,2,40,100,0,26,70,2,48,92,0,31,65,2,64,54,19,46,37,12
2017-07-01T23:59:59Z,94,141,126,86,141,94,122,84,47,32,0,0,0,0,0,0,0,141,0,94,1,140,1,93,0,0,0,0,0,0,0,0,2,101,38,2,71,27,10,131,0,7,87,2,48,93,0,32,65,2,11,129,0,8,86,2,51,89,0,33,63,2,48,92,0,32,64,2,49,91,0,32,63,2,2,137,1,1,92,3,47,93,0,32,65,2,47,94,0,32,66,2,0,141,0,0,94,2,0,141,0,0,94,2,40,100,0,26,70,2,46,94,0,31,66,2,64,56,20,46,38,13
2017-07-02T23:59:59Z,95,143,128,87,143,95,127,86,47,32,0,0,0,0,0,0,0,143,0,95,2,141,2,93,0,0,0,0,0,0,0,0,2,104,37,2,73,26,10,133,0,7,88,2,47,96,0,31,67,2,10,132,0,7,87,2,49,93,0,32,66,2,49,93,0,32,66,2,49,93,0,32,66,2,2,140,0,1,93,2,46,96,0,31,67,2,46,97,0,31,68,2,0,143,0,0,95,2,0,143,0,0,95,2,40,101,1,26,71,3,45,97,0,30,68,2,66,54,20,47,37,13
2017-07-03T23:59:58Z,94,142,127,86,142,94,124,84,44,30,0,0,0,0,0,0,0,142,0,94,3,139,2,92,0,0,0,0,0,0,0,0,2,102,38,2,71,26,12,130,0,8,87,2,49,93,0,32,65,2,11,130,0,7,86,2,47,94,0,31,65,2,47,94,0,31,65,2,47,94,0,31,65,2,2,139,0,1,92,2,46,95,0,31,66,2,46,96,0,31,67,2,0,142,0,0,94,2,0,142,0,0,94,2,40,101,0,26,71,2,45,96,0,30,67,2,67,53,21,48,36,13
2017-07-04T23:59:58Z,93,139,124,85,139,93,121,84,43,30,0,0,0,0,0,0,0,139,0,93,1,138,1,92,0,0,0,0,0,0,0,0,2,103,34,2,72,25,10,129,0,7,86,2,44,95,0,30,66,2,10,128,0,7,85,2,45,93,0,31,65,2,45,93,0,31,65,2,45,93,0,31,65,2,2,136,0,1,91,2,44,94,0,31,66,2,44,95,0,31,67,2,0,139,0,0,93,2,0,139,0,0,93,2,36,102,0,24,71,2,43,95,0,29,66,2,66,50,20,47,35,13
2017-07-05T23:59:59Z,92,136,121,84,136,92,120,83,42,29,0,0,0,0,0,0,0,136,0,92,3,133,2,90,0,0,0,0,0,0,0,0,2,97,37,2,70,26,9,127,0,7,85,2,46,90,0,32,64,2,9,126,0,7,84,2,45,90,0,32,63,2,45,90,0,32,63,2,45,90,0,32,63,2,1,134,0,1,90,2,43,92,0,31,64,2,43,93,0,31,65,2,0,136,0,0,92,2,0,135,1,0,92,3,37,97,1,26,69,3,43,92,0,31,65,2,66,49,20,48,34,13
2017-07-06T23:59:58Z,92,136,122,84,136,92,119,83,45,31,0,0,0,0,0,0,0,136,0,92,1,135,1,91,0,0,0,0,0,0,0,0,2,99,35,2,70,26,10,126,0,7,85,2,45,91,0,31,64,2,10,125,0,7,84,2,45,90,0,31,63,2,45,90,0,31,63,2,46,89,0,32,63,2,1,134,0,1,90,2,45,90,0,32,64,2,45,91,0,32,65,2,0,136,0,0,92,2,0,136,0,0,92,2,36,99,0,25,69,2,43,92,0,30,65,2,65,50,19,47,35,12
2017-07-07T23:59:59Z,93,137,122,85,137,93,120,84,42,29,0,0,0,0,0,0,0,137,0,93,1,136,1,92,0,0,0,0,0,0,0,0,2,100,35,2,71,26,10,127,0,8,86,2,45,92,0,31,64,2,9,127,0,7,85,2,45,91,0,32,64,2,45,91,0,32,64,2,45,91,0,32,64,2,1,135,0,1,91,2,43,93,0,31,65,2,43,94,0,31,66,2,0,137,0,0,93,2,0,137,0,0,93,2,38,98,0,26,70,2,44,92,0,31,65,2,66,50,20,48,35,13
2017-07-08T23:59:59Z,93,137,122,85,136,93,120,83,44,31,0,0,0,0,0,0,0,137,0,93,3,134,2,91,0,0,0,0,0,0,0,0,2,98,37,2,71,26,9,128,0,7,86,2,46,91,0,32,65,2,9,127,0,7,85,2,46,90,0,32,64,2,46,90,0,32,64,2,46,90,0,32,64,2,1,135,0,1,91,2,43,93,0,31,65,2,43,94,0,31,66,2,0,137,0,0,93,2,0,137,0,0,93,2,36,100,0,25,70,2,42,94,0,30,66,2,66,47,20,48,33,13
2017-07-09T23:59:59Z,91,135,120,83,135,91,117,81,41,29,0,0,0,0,0,0,0,135,0,91,3,132,2,89,0,0,0,0,0,0,0,0,2,100,33,2,70,25,10,125,0,7,84,2,43,92,0,30,64,2,10,124,0,7,83,2,43,91,0,30,63,2,43,91,0,30,63,2,43,91,0,30,63,2,1,133,0,1,89,2,42,92,0,30,64,2,42,93,0,30,65,2,0,135,0,0,91,2,0,135,0,0,91,2,34,100,0,24,69,2,41,93,0,29,65,2,66,47,21,48,33,13
2017-07-10T23:59:59Z,94,140,124,86,140,94,122,85,44,31,0,0,0,0,0,0,1,139,1,94,3,137,2,92,0,0,0,0,0,0,0,0,2,102,36,2,71,25,11,129,0,9,87,1,46,94,0,32,65,1,10,129,0,8,86,1,48,91,0,33,64,1,48,91,0,33,64,1,48,91,0,33,64,1,1,138,0,1,92,1,44,95,0,32,66,1,44,96,0,32,67,1,0,140,0,0,94,1,0,140,0,0,94,1,36,103,0,25,71,1,43,96,0,31,67,1,68,48,20,49,34,13
2017-07-11T23:59:59Z,93,139,123,85,139,93,122,84,44,31,0,0,0,0,0,0,1,138,1,93,1,138,1,92,0,0,0,0,0,0,0,0,2,102,35,2,71,25,10,129,0,8,86,1,45,94,0,32,65,1,10,129,0,8,86,1,47,92,0,33,65,1,47,92,0,33,65,1,47,92,0,33,65,1,1,138,0,1,92,1,44,95,0,32,66,1,44,95,0,32,66,1,0,139,0,0,93,1,0,139,0,0,93,1,36,103,0,25,71,1,43,95,0,31,66,1,68,47,20,49,33,13
2017-07-12T23:59:59Z,92,139,123,84,139,92,121,83,42,30,0,0,0,0,0,0,1,138,1,92,1,138,1,91,0,0,0,0,0,0,0,0,2,102,35,2,70,24,11,128,0,8,85,1,46,93,0,32,64,1,11,128,0,8,85,1,48,91,0,32,63,1,48,91,0,32,63,1,48,91,0,32,63,1,1,138,0,1,91,1,46,93,0,32,65,1,46,93,0,32,65,1,0,139,0,0,92,1,0,139,0,0,92,1,35,104,0,24,70,1,43,95,0,30,65,1,68,47,21,49,34,13
2017-07-13T23:59:59Z,93,138,122,85,138,93,119,84,41,29,0,0,0,0,0,0,1,137,1,93,3,135,2,91,0,0,0,0,0,0,0,0,2,102,34,2,71,24,10,128,0,8,86,1,44,94,0,31,65,1,10,128,0,8,86,1,46,92,0,32,65,1,46,92,0,32,65,1,46,92,0,32,65,1,1,137,0,1,92,1,43,95,0,31,66,1,43,95,0,31,66,1,0,138,0,0,93,1,0,138,0,0,93,1,35,102,1,24,71,2,42,95,0,30,66,1,69,46,20,51,33,13
2017-07-14T23:59:59Z,93,138,122,85,138,93,118,83,42,30,0,0,0,0,0,0,1,137,1,93,3,135,2,91,0,0,0,0,0,0,0,0,2,102,34,2,71,24,10,128,0,8,86,1,44,94,0,31,65,1,10,128,0,8,86,1,45,93,0,32,65,1,45,93,0,32,65,1,45,93,0,32,65,1,1,137,0,1,92,1,43,95,0,31,66,1,43,95,0,31,66,1,0,138,0,0,93,1,0,138,0,0,93,1,37,101,0,25,71,1,42,95,0,30,66,1,68,46,20,50,33,13
2017-07-15T23:59:59Z,92,137,121,84,137,92,119,83,43,31,0,0,0,0,0,0,3,134,2,91,3,134,2,90,0,0,0,0,0,0,0,0,2,101,34,2,70,24,11,126,0,8,85,1,46,91,0,32,64,1,11,126,0,8,85,1,46,91,0,32,64,1,46,91,0,32,64,1,46,91,0,32,64,1,1,136,0,1,91,1,43,94,0,30,65,1,43,94,0,30,65,1,0,137,0,0,92,1,0,137,0,0,92,1,35,101,1,24,70,2,44,92,0,30,65,1,67,47,21,49,34,13
2017-07-16T23:59:57Z,91,136,120,83,136,91,116,82,41,29,0,0,0,0,0,0,1,135,1,91,3,133,2,89,0,0,0,0,0,0,0,0,2,99,34,2,69,24,10,126,0,8,84,1,44,92,0,31,63,1,10,126,0,8,84,1,45,91,0,32,63,1,45,91,0,32,63,1,45,91,0,32,63,1,1,135,0,1,90,1,43,93,0,31,64,1,43,93,0,31,64,1,0,136,0,0,91,1,0,136,0,0,91,1,35,101,0,24,69,1,41,94,0,29,64,1,68,45,20,49,33,13
2017-07-17T23:59:58Z,93,138,122,85,138,93,120,84,43,31,0,0,0,0,0,0,1,137,1,93,4,134,3,90,0,0,0,0,0,0,0,0,2,101,34,2,71,24,10,128,0,8,86,1,44,94,0,31,65,1,10,128,0,8,86,1,44,94,0,31,65,1,44,94,0,31,65,1,44,94,0,31,65,1,1,137,0,1,92,1,42,96,0,30,66,1,42,96,0,30,66,1,0,138,0,0,93,1,0,138,0,0,93,1,35,103,0,24,71,1,41,96,0,29,66,1,67,47,20,48,34,13
2017-07-18T23:59:58Z,93,139,123,85,139,93,121,84,44,32,0,0,0,0,0,0,1,138,1,93,4,135,3,90,0,0,0,0,0,0,0,0,2,102,34,2,71,24,11,128,0,8,86,1,45,94,0,31,65,1,11,128,0,8,86,1,45,94,0,31,65,1,45,94,0,31,65,1,45,94,0,31,65,1,1,138,0,1,92,1,43,96,0,30,66,1,43,96,0,30,66,1,0,139,0,0,93,1,0,139,0,0,93,1,35,104,0,24,71,1,42,96,0,29,66,1,68,49,21,49,35,13
2017-07-19T23:59:59Z,91,136,120,83,136,91,117,82,42,30,0,0,0,0,0,0,1,135,1,91,4,132,3,88,0,0,0,0,0,0,0,0,2,99,34,2,69,24,10,126,0,8,84,1,44,92,0,31,63,1,10,126,0,8,84,1,44,92,0,31,63,1,44,92,0,31,63,1,44,92,0,31,63,1,1,135,0,1,90,1,42,94,0,30,64,1,42,94,0,30,64,1,0,136,0,0,91,1,0,136,0,0,91,1,35,101,0,24,69,1,41,94,0,29,64,1,66,47,20,47,34,13
2017-07-20T23:59:59Z,93,139,123,85,139,93,122,84,43,31,0,0,0,0,0,0,1,138,1,93,2,137,2,91,0,0,0,0,0,0,0,0,2,102,34,2,71,24,11,128,0,8,86,1,45,94,0,31,65,1,11,128,0,8,86,1,45,94,0,31,65,1,45,94,0,31,65,1,45,94,0,31,65,1,1,138,0,1,92,1,43,96,0,30,66,1,43,96,0,30,66,1,0,139,0,0,93,1,0,139,0,0,93,1,35,104,0,24,71,1,42,96,0,29,66,1,67,49,21,48,35,13
2017-07-21T23:59:57Z,91,135,119,83,135,91,117,82,39,28,0,0,0,0,0,0,1,134,1,91,3,132,2,89,0,0,0,0,0,0,0,0,2,100,32,2,70,23,10,125,0,8,84,1,42,93,0,30,64,1,10,125,0,8,84,1,44,91,0,31,64,1,44,91,0,31,64,1,44,91,0,31,64,1,1,134,0,1,90,1,40,95,0,29,65,1,40,95,0,29,65,1,0,135,0,0,91,1,0,135,0,0,91,1,33,101,1,23,69,2,39,95,0,28,65,1,68,46,20,49,33,13
2017-07-22T23:59:59Z,94,139,123,86,139,94,121,85,44,32,0,0,0,0,0,0,1,138,1,94,2,137,2,92,0,0,0,0,0,0,0,0,2,101,35,2,71,25,10,129,0,8,87,1,45,94,0,32,65,1,10,129,0,8,87,1,48,91,0,33,64,1,48,91,0,33,64,1,48,91,0,33,64,1,1,138,0,1,93,1,43,96,0,31,66,1,43,96,0,31,66,1,0,139,0,0,94,1,0,139,0,0,94,1,36,103,0,25,71,1,42,96,0,30,66,1,67,50,20,48,36,13
2017-07-23T23:59:59Z,93,140,125,86,140,93,124,85,44,32,0,0,0,0,0,0,1,139,1,93,4,136,3,90,0,0,0,0,0,0,0,0,2,102,35,2,70,25,12,128,0,8,86,1,47,93,0,32,64,1,12,128,0,8,86,1,47,93,0,32,64,1,47,93,0,32,64,1,47,93,0,32,64,1,1,139,0,1,92,1,45,95,0,31,65,1,45,95,0,31,65,1,0,140,0,0,93,1,0,140,0,0,93,1,36,104,0,25,70,1,44,95,0,30,65,1,66,48,22,47,35,13
2017-07-24T23:59:57Z,94,138,124,87,138,94,121,86,45,33,0,0,0,0,0,0,1,137,1,94,2,136,2,92,0,0,0,0,0,0,0,0,2,101,35,2,70,26,9,129,0,8,87,2,44,94,0,32,65,2,9,129,0,8,87,2,44,94,0,32,65,2,44,94,0,32,65,2,44,94,0,32,65,2,1,137,0,1,93,2,42,96,0,30,67,2,43,95,0,31,66,2,0,138,0,0,94,2,0,138,0,0,94,2,31,107,0,21,75,2,42,95,0,30,66,2,66,50,20,47,37,13
2017-07-25T23:59:58Z,93,138,123,86,138,93,121,85,43,31,0,0,0,0,0,0,1,137,1,93,4,134,3,90,0,0,0,0,0,0,0,0,3,100,35,2,69,25,10,128,0,8,86,1,45,93,0,32,64,1,10,128,0,8,86,1,45,93,0,32,64,1,45,93,0,32,64,1,45,93,0,32,64,1,1,137,0,1,92,1,43,95,0,31,65,1,43,95,0,31,65,1,0,138,0,0,93,1,0,138,0,0,93,1,36,102,0,25,70,1,42,95,0,30,65,1,66,49,20,47,36,13
2017-07-26T23:59:58Z,90,135,122,84,135,90,121,83,43,31,0,0,0,0,0,0,3,132,2,89,4,131,3,87,0,0,0,0,0,0,0,0,3,97,35,2,66,25,10,125,0,7,84,1,45,90,0,31,62,1,10,125,0,7,84,1,45,90,0,31,62,1,45,90,0,31,62,1,45,90,0,31,62,1,0,135,0,0,90,1,43,92,0,30,63,1,43,92,0,30,63,1,0,135,0,0,90,1,0,135,0,0,90,1,35,100,0,24,68,1,43,92,0,30,63,1,63,50,21,45,36,13
2017-07-27T23:59:57Z,93,139,124,86,138,93,122,85,44,32,0,0,0,0,0,0,1,138,1,93,4,135,3,90,0,0,0,0,0,0,0,0,3,101,35,2,69,25,9,130,0,7,87,1,44,95,0,31,65,1,9,130,0,7,87,1,44,95,0,31,65,1,44,95,0,31,65,1,44,95,0,31,65,1,0,139,0,0,93,1,45,94,0,31,65,1,45,94,0,31,65,1,0,139,0,0,93,1,0,139,0,0,93,1,35,104,0,24,71,1,43,96,0,31,66,1,67,50,20,47,36,13
2017-07-28T23:59:59Z,91,135,120,84,135,91,119,83,43,31,0,0,0,0,0,0,1,134,1,91,2,133,2,89,0,0,0,0,0,0,0,0,3,97,35,2,67,25,9,126,0,7,85,1,44,91,0,31,63,1,9,126,0,7,85,1,44,91,0,31,63,1,44,91,0,31,63,1,44,91,0,31,63,1,0,135,0,0,91,1,42,93,0,30,64,1,42,93,0,30,64,1,0,135,0,0,91,1,0,135,0,0,91,1,35,100,0,24,69,1,42,93,0,30,64,1,64,48,20,46,35,13
2017-07-29T23:59:59Z,91,136,121,84,135,91,119,83,44,32,0,0,0,0,0,0,1,135,1,91,2,134,2,89,0,0,0,0,0,0,0,0,3,98,35,2,67,25,10,126,0,7,85,1,45,91,0,31,63,1,10,126,0,7,85,1,45,91,0,31,63,1,45,91,0,31,63,1,45,91,0,31,63,1,0,136,0,0,91,1,43,93,0,30,64,1,43,93,0,30,64,1,0,136,0,0,91,1,0,136,0,0,91,1,35,101,0,24,69,1,44,92,0,31,63,1,63,50,21,45,36,13
2017-07-30T23:59:56Z,90,133,118,83,133,90,116,82,42,31,0,0,0,0,0,0,1,132,1,90,2,131,2,88,0,0,0,0,0,0,0,0,3,96,34,2,67,24,9,124,0,7,84,1,43,90,0,31,63,1,9,124,0,7,84,1,43,90,0,31,63,1,42,91,0,30,63,1,42,91,0,30,63,1,0,133,0,0,90,1,42,91,0,30,64,1,42,91,0,30,64,1,0,133,0,0,90,1,0,133,0,0,90,1,33,100,0,23,69,1,40,93,0,29,64,1,63,48,18,45,35,12
2017-07-31T23:59:59Z,90,133,119,83,133,90,118,82,41,30,0,0,0,0,0,0,1,132,1,90,4,129,3,87,0,0,0,0,0,0,0,0,3,97,33,2,67,24,9,124,0,7,84,1,42,91,0,30,63,1,9,124,0,7,84,1,42,91,0,30,63,1,42,91,0,30,63,1,42,91,0,30,63,1,0,133,0,0,90,1,40,93,0,29,64,1,40,93,0,29,64,1,0,133,0,0,90,1,0,133,0,0,90,1,33,100,0,23,69,1,40,93,0,29,64,1,64,48,18,46,35,12
2017-08-01T23:59:59Z,92,138,123,84,138,92,122,83,41,30,0,0,0,0,0,0,1,137,1,92,4,134,3,89,0,0,0,0,0,0,0,0,3,102,33,2,69,24,11,127,0,7,86,1,44,94,0,30,65,1,11,127,0,7,86,1,46,92,0,31,65,1,45,93,0,31,65,1,46,92,0,31,65,1,0,138,0,0,92,1,44,94,0,30,66,1,44,94,0,30,66,1,0,138,0,0,92,1,0,138,0,0,92,1,33,105,0,23,71,1,42,96,0,29,66,1,67,48,20,48,35,12
2017-08-02T23:59:59Z,91,135,120,83,135,91,118,82,42,31,0,0,0,0,0,0,1,134,1,91,4,131,3,88,0,0,0,0,0,0,0,0,3,99,33,2,68,24,9,126,0,7,85,1,42,93,0,30,64,1,9,126,0,7,85,1,43,92,0,31,64,1,43,92,0,31,64,1,43,92,0,31,64,1,0,135,0,0,91,1,41,94,0,30,65,1,41,94,0,30,65,1,0,135,0,0,91,1,0,135,0,0,91,1,35,100,0,24,70,1,41,94,0,30,64,1,66,48,18,47,35,12
2017-08-03T23:59:59Z,91,138,123,84,138,91,121,82,42,30,0,0,0,0,0,0,1,137,1,91,3,135,2,89,0,0,0,0,0,0,0,0,3,101,34,2,68,24,9,129,0,7,85,1,44,94,0,31,64,1,9,129,0,7,85,1,44,94,0,31,64,1,43,95,0,30,64,1,44,94,0,31,64,1,0,138,0,0,91,1,42,96,0,30,65,1,41,97,0,29,65,1,0,138,0,0,91,1,0,138,0,0,91,1,35,103,0,24,70,1,42,96,0,30,64,1,68,50,18,48,35,12
2017-08-04T23:59:59Z,90,133,120,83,133,90,119,82,39,29,0,0,0,0,0,0,1,132,1,90,3,130,2,88,0,0,0,0,0,0,0,0,3,96,34,2,67,24,10,123,0,7,84,1,44,89,0,31,63,1,10,123,0,7,84,1,44,89,0,31,63,1,45,88,0,31,62,1,44,89,0,31,63,1,0,133,0,0,90,1,40,93,0,29,64,1,40,93,0,29,64,1,0,133,0,0,90,1,0,133,0,0,90,1,32,101,0,23,69,1,40,93,0,29,64,1,67,46,19,48,34,12
2017-08-05T23:59:59Z,89,131,118,82,131,89,116,81,39,29,0,0,0,0,0,0,1,130,1,89,3,128,2,87,0,0,0,0,0,0,0,0,3,95,33,2,66,24,9,122,0,7,83,1,42,89,0,31,62,1,9,122,0,7,83,1,42,89,0,31,62,1,42,89,0,31,62,1,42,89,0,31,62,1,0,131,0,0,89,1,42,89,0,30,62,1,42,89,0,30,62,1,0,131,0,0,89,1,0,131,0,0,89,1,32,99,0,23,68,1,40,91,0,30,62,1,66,45,18,47,33,12
2017-08-06T23:59:59Z,90,134,121,83,134,90,120,82,40,29,0,0,0,0,0,0,1,133,1,90,3,131,2,88,0,0,0,0,0,0,0,0,3,97,34,2,66,25,9,125,0,7,84,1,43,91,0,31,62,1,9,125,0,7,84,1,45,89,0,32,62,1,45,89,0,32,62,1,45,89,0,32,62,1,0,134,0,0,90,1,42,92,0,31,63,1,42,92,0,31,63,1,0,134,0,0,90,1,0,134,0,0,90,1,34,100,0,24,68,1,41,93,0,30,63,1,69,47,17,48,34,11
2017-08-07T23:59:58Z,90,136,122,83,136,90,120,81,39,28,0,0,0,0,0,0,1,135,1,90,1,135,1,89,0,0,0,0,0,0,0,0,3,98,35,2,65,26,10,126,0,7,84,1,45,91,0,32,61,1,10,126,0,7,84,1,47,89,0,33,61,1,47,89,0,33,61,1,47,89,0,33,61,1,0,136,0,0,90,1,44,92,0,32,62,1,44,92,0,32,62,1,0,136,0,0,90,1,0,136,0,0,90,1,35,101,0,25,67,1,43,93,0,31,62,1,69,47,19,48,34,12
2017-08-08T23:59:58Z,90,140,127,84,140,90,126,83,44,31,0,0,0,0,0,0,1,139,1,90,3,137,2,88,0,0,0,0,0,0,0,0,3,97,40,2,65,28,10,130,0,7,84,1,50,90,0,35,61,1,10,130,0,7,84,1,49,91,0,34,61,1,49,91,0,34,61,1,49,91,0,34,61,1,0,140,0,0,90,1,48,92,0,34,62,1,48,92,0,34,62,1,0,140,0,0,90,1,0,140,0,0,90,1,40,100,0,27,66,1,47,93,0,33,62,1,69,50,20,47,36,12
2017-08-09T23:59:58Z,91,140,128,85,140,91,127,84,47,32,0,0,0,0,0,0,1,139,1,91,1,139,2,90,0,0,0,0,0,0,0,0,4,96,40,3,65,28,11,129,0,8,85,1,51,89,0,35,61,1,11,129,0,8,85,1,51,89,0,35,61,1,51,89,0,35,61,1,51,89,0,35,61,1,1,139,0,1,91,1,49,91,0,34,62,1,49,91,0,34,62,1,0,140,0,0,91,1,0,140,0,0,91,1,41,99,0,28,67,1,49,91,0,34,62,1,69,49,20,47,35,12
2017-08-10T23:59:59Z,91,137,125,85,137,91,123,84,46,32,0,0,0,0,0,0,1,136,1,91,3,134,2,89,0,0,0,0,0,0,0,0,4,93,40,3,64,28,10,127,0,8,84,1,50,87,0,35,60,1,10,127,0,8,84,1,53,84,0,36,59,1,53,84,0,36,59,1,53,84,0,36,59,1,1,136,0,1,90,1,48,89,0,34,61,1,48,89,0,34,61,1,0,137,0,0,91,1,0,137,0,0,91,1,41,96,0,28,66,1,48,89,0,34,61,1,68,48,19,47,35,12
2017-08-11T23:59:58Z,92,138,126,86,138,92,125,85,47,32,0,0,0,0,0,0,1,137,1,92,3,135,2,90,0,0,0,0,0,0,0,0,4,94,40,3,66,28,10,128,0,8,86,1,50,88,0,35,62,1,10,128,0,8,86,1,51,87,0,36,62,1,50,88,0,35,62,1,50,88,0,35,62,1,1,137,0,1,92,1,48,90,0,34,63,1,48,90,0,34,63,1,0,138,0,0,92,1,0,138,0,0,92,1,41,97,0,28,68,1,48,90,0,34,63,1,67,50,19,47,36,12
2017-08-12T23:59:58Z,91,137,125,85,137,91,124,84,43,30,0,0,0,0,0,0,1,136,1,91,3,134,2,89,0,0,0,0,0,0,0,0,3,97,37,2,67,26,12,125,0,8,84,1,49,88,0,33,62,1,12,125,0,8,84,1,49,88,0,33,62,1,49,88,0,33,62,1,49,88,0,33,62,1,0,137,0,0,91,1,47,90,0,32,63,1,47,90,0,32,63,1,0,137,0,0,91,1,0,137,0,0,91,1,37,100,0,25,69,1,47,90,0,32,63,1,71,45,20,50,33,12
2017-08-13T23:59:59Z,88,132,122,83,132,88,120,82,42,29,0,0,0,0,0,0,1,131,1,88,3,129,2,86,0,0,0,0,0,0,0,0,3,93,36,2,64,25,10,122,0,7,82,1,46,86,0,31,60,1,10,122,0,7,82,1,48,84,0,32,60,1,46,86,0,31,60,1,48,84,0,32,60,1,0,132,0,0,88,1,44,88,0,30,61,1,44,88,0,30,61,1,0,132,0,0,88,1,0,132,0,0,88,1,36,96,0,24,66,1,44,88,0,30,61,1,68,44,18,47,32,11
2017-08-14T23:59:58Z,92,139,129,87,139,92,127,86,44,30,0,0,0,0,0,0,1,138,1,92,3,136,2,90,0,0,0,0,0,0,0,0,3,98,38,2,67,26,10,129,0,7,86,1,48,91,0,32,63,1,10,129,0,7,86,1,48,91,0,32,63,1,48,91,0,32,63,1,48,91,0,32,63,1,0,139,0,0,92,1,47,92,0,32,64,1,47,92,0,32,64,1,0,139,0,0,92,1,0,139,0,0,92,1,38,101,0,25,69,1,46,93,0,31,64,1,70,49,18,48,35,11
2017-08-15T23:59:59Z,91,140,129,86,140,91,128,85,44,30,0,0,0,0,0,0,1,139,1,91,3,137,2,89,0,0,0,0,0,0,0,0,3,98,39,2,67,26,11,129,0,7,85,1,50,90,0,33,63,1,11,129,0,7,85,1,51,89,0,33,63,1,51,89,0,33,63,1,51,89,0,33,63,1,0,140,0,0,91,1,47,93,0,31,64,1,48,92,0,32,64,1,0,140,0,0,91,1,0,140,0,0,91,1,38,102,0,25,69,1,47,93,0,31,64,1,70,48,20,48,34,12
2017-08-16T23:59:58Z,92,140,129,87,140,92,127,86,42,29,0,0,0,0,0,0,1,139,1,92,3,137,2,90,0,0,0,0,0,0,0,0,3,99,38,2,68,26,10,130,0,7,86,1,48,92,0,33,64,1,10,130,0,7,86,1,49,91,0,33,64,1,49,91,0,33,64,1,49,91,0,33,64,1,0,140,0,0,92,1,45,95,0,31,65,1,45,95,0,31,65,1,0,140,0,0,92,1,0,140,0,0,92,1,37,103,0,25,70,1,45,95,0,31,65,1,72,48,19,49,35,12
2017-08-17T23:59:58Z,93,142,131,88,142,93,128,86,44,31,0,0,0,0,0,0,1,141,1,93,3,139,2,91,0,0,0,0,0,0,0,0,3,102,37,2,69,26,10,132,0,7,87,1,47,95,0,32,65,1,10,132,0,7,87,1,49,93,0,33,65,1,49,93,0,33,65,1,49,93,0,33,65,1,0,142,0,0,93,1,45,97,0,31,66,1,45,97,0,31,66,1,0,142,0,0,93,1,0,142,0,0,93,1,39,103,0,26,71,1,47,95,0,32,66,1,74,47,19,50,34,12
2017-08-18T23:59:59Z,91,137,128,86,137,91,125,84,40,27,0,0,0,0,0,0,1,136,1,91,1,136,1,90,0,0,0,0,0,0,0,0,3,97,37,2,67,26,10,127,0,7,85,1,47,90,0,32,63,1,10,127,0,7,85,1,47,90,0,32,63,1,47,90,0,32,63,1,47,90,0,32,63,1,0,137,0,0,91,1,45,92,0,31,64,1,45,92,0,31,64,1,0,137,0,0,91,1,0,137,0,0,91,1,37,100,0,25,69,1,45,92,0,31,64,1,73,44,19,50,33,12
2017-08-19T23:59:59Z,92,138,129,87,138,92,126,85,42,29,0,0,0,0,0,0,1,137,1,92,3,135,2,90,0,0,0,0,0,0,0,0,3,97,38,2,68,26,10,128,0,7,86,1,48,90,0,33,64,1,10,128,0,7,86,1,48,90,0,33,64,1,48,90,0,33,64,1,48,90,0,33,64,1,0,138,0,0,92,1,46,92,0,32,65,1,46,92,0,32,65,1,0,138,0,0,92,1,0,138,0,0,92,1,37,101,0,25,70,1,45,93,0,31,65,1,73,44,19,50,33,12
2017-08-20T23:59:59Z,93,139,129,87,139,93,126,85,43,30,0,0,0,0,0,0,1,138,1,93,3,136,2,91,0,0,0,0,0,0,0,0,3,99,37,2,69,26,11,128,0,8,86,1,48,91,0,33,64,1,11,128,0,8,86,1,51,88,0,34,63,1,50,89,0,34,64,1,51,88,0,34,63,1,0,139,0,0,93,1,46,93,0,32,65,1,48,91,0,33,65,1,0,139,0,0,93,1,0,139,0,0,93,1,37,102,0,25,71,1,47,92,0,33,65,1,73,45,19,50,34,12
2017-08-21T23:59:58Z,94,142,130,88,142,94,127,86,44,30,0,0,0,0,0,0,1,141,1,94,3,139,2,92,0,0,0,0,0,0,0,0,4,101,37,3,70,26,11,131,0,8,87,1,48,94,0,33,65,1,10,131,1,7,87,2,50,92,0,34,65,1,50,92,0,34,65,1,50,92,0,34,65,1,0,142,0,0,94,1,49,93,0,33,65,1,49,93,0,33,65,1,0,142,0,0,94,1,0,142,0,0,94,1,37,105,0,25,72,1,46,96,0,32,66,1,75,47,19,52,34,12